Year,Month,Day,Hour,Minute,Value (Times are PST for temperature in C)
2015,07,01,00,00,17.80
2015,07,01,00,01,17.80
2015,07,01,00,02,17.80
2015,07,01,00,03,17.80
2015,07,01,00,04,17.80
2015,07,01,00,05,17.70
2015,07,01,00,06,17.70
2015,07,01,00,07,17.70
2015,07,01,00,08,17.70
2015,07,01,00,09,17.70
2015,07,01,00,10,17.70
2015,07,01,00,11,17.70
2015,07,01,00,12,17.70
2015,07,01,00,16,17.60
2015,07,01,00,17,17.60
2015,07,01,00,18,17.60
2015,07,01,00,19,17.60
2015,07,01,00,20,17.60
2015,07,01,00,21,17.60
2015,07,01,00,22,17.60
2015,07,01,00,23,17.60
2015,07,01,00,24,17.60
2015,07,01,00,25,17.60
2015,07,01,00,26,17.60
2015,07,01,00,27,17.60
2015,07,01,00,28,17.60
2015,07,01,00,29,17.60
2015,07,01,00,30,17.60
2015,07,01,00,31,17.60
2015,07,01,00,32,17.60
2015,07,01,00,33,17.60
2015,07,01,00,34,17.60
2015,07,01,00,35,17.60
2015,07,01,00,36,17.60
2015,07,01,00,37,17.60
2015,07,01,00,38,17.60
2015,07,01,00,39,17.60
2015,07,01,00,40,17.60
2015,07,01,00,41,17.60
2015,07,01,00,42,17.60
2015,07,01,00,43,17.60
2015,07,01,00,44,17.60
2015,07,01,00,45,17.60
2015,07,01,00,46,17.60
2015,07,01,00,47,17.60
2015,07,01,00,48,17.60
2015,07,01,00,49,17.50
2015,07,01,00,50,17.50
2015,07,01,00,51,17.50
2015,07,01,00,52,17.50
2015,07,01,00,53,17.50
2015,07,01,00,54,17.50
2015,07,01,00,55,17.50
2015,07,01,00,56,17.50
2015,07,01,00,57,17.50
2015,07,01,00,58,17.50
2015,07,01,00,59,17.50
2015,07,01,01,00,17.50
2015,07,01,01,01,17.50
2015,07,01,01,02,17.40
2015,07,01,01,03,17.40
2015,07,01,01,04,17.40
2015,07,01,01,05,17.40
2015,07,01,01,06,17.40
2015,07,01,01,07,17.40
2015,07,01,01,08,17.40
2015,07,01,01,09,17.40
2015,07,01,01,10,17.40
2015,07,01,01,11,17.40
2015,07,01,01,12,17.30
2015,07,01,01,13,17.30
2015,07,01,01,14,17.30
2015,07,01,01,15,17.30
2015,07,01,01,16,17.30
2015,07,01,01,17,17.30
2015,07,01,01,18,17.30
2015,07,01,01,19,17.30
2015,07,01,01,20,17.30
2015,07,01,01,21,17.30
2015,07,01,01,22,17.20
2015,07,01,01,23,17.20
2015,07,01,01,24,17.20
2015,07,01,01,25,17.20
2015,07,01,01,26,17.20
2015,07,01,01,27,17.10
2015,07,01,01,28,17.10
2015,07,01,01,29,17.10
2015,07,01,01,30,17.10
2015,07,01,01,31,17.10
2015,07,01,01,32,17.00
2015,07,01,01,33,17.00
2015,07,01,01,34,17.00
2015,07,01,01,35,16.90
2015,07,01,01,36,16.90
2015,07,01,01,37,16.90
2015,07,01,01,38,16.90
2015,07,01,01,39,16.90
2015,07,01,01,40,16.80
2015,07,01,01,41,16.80
2015,07,01,01,42,16.80
2015,07,01,01,43,16.80
2015,07,01,01,44,16.80
2015,07,01,01,45,16.70
2015,07,01,01,46,16.70
2015,07,01,01,47,16.70
2015,07,01,01,48,16.70
2015,07,01,01,49,16.70
2015,07,01,01,50,16.70
2015,07,01,01,51,16.70
2015,07,01,01,52,16.70
2015,07,01,01,53,16.60
2015,07,01,01,54,16.60
2015,07,01,01,55,16.60
2015,07,01,01,56,16.60
2015,07,01,01,57,16.60
2015,07,01,01,58,16.60
2015,07,01,01,59,16.50
2015,07,01,02,00,16.40
2015,07,01,02,01,16.40
2015,07,01,02,02,16.40
2015,07,01,02,03,16.40
2015,07,01,02,04,16.40
2015,07,01,02,05,16.40
2015,07,01,02,06,16.40
2015,07,01,02,07,16.40
2015,07,01,02,08,16.40
2015,07,01,02,09,16.40
2015,07,01,02,10,16.40
2015,07,01,02,11,16.40
2015,07,01,02,12,16.30
2015,07,01,02,13,16.30
2015,07,01,02,14,16.30
2015,07,01,02,15,16.30
2015,07,01,02,16,16.30
2015,07,01,02,17,16.30
2015,07,01,02,18,16.30
2015,07,01,02,19,16.30
2015,07,01,02,20,16.30
2015,07,01,02,21,16.30
2015,07,01,02,22,16.30
2015,07,01,02,23,16.30
2015,07,01,02,24,16.30
2015,07,01,02,25,16.30
2015,07,01,02,26,16.30
2015,07,01,02,27,16.30
2015,07,01,02,28,16.30
2015,07,01,02,29,16.30
2015,07,01,02,30,16.30
2015,07,01,02,31,16.30
2015,07,01,02,32,16.30
2015,07,01,02,33,16.30
2015,07,01,02,34,16.30
2015,07,01,02,35,16.30
2015,07,01,02,36,16.20
2015,07,01,02,37,16.20
2015,07,01,02,38,16.20
2015,07,01,02,39,16.20
2015,07,01,02,40,16.20
2015,07,01,02,41,16.20
2015,07,01,02,42,16.20
2015,07,01,02,43,16.20
2015,07,01,02,44,16.20
2015,07,01,02,45,16.20
2015,07,01,02,46,16.20
2015,07,01,02,47,16.20
2015,07,01,02,48,16.20
2015,07,01,02,49,16.20
2015,07,01,02,50,16.20
2015,07,01,02,51,16.20
2015,07,01,02,52,16.20
2015,07,01,02,53,16.20
2015,07,01,02,54,16.20
2015,07,01,02,55,16.10
2015,07,01,02,56,16.10
2015,07,01,02,57,16.10
2015,07,01,02,58,16.10
2015,07,01,02,59,16.10
2015,07,01,03,00,16.10
2015,07,01,03,01,16.10
2015,07,01,03,02,16.10
2015,07,01,03,03,16.10
2015,07,01,03,04,16.10
2015,07,01,03,05,16.10
2015,07,01,03,06,16.10
2015,07,01,03,07,16.10
2015,07,01,03,08,16.10
2015,07,01,03,09,16.10
2015,07,01,03,10,16.10
2015,07,01,03,11,16.10
2015,07,01,03,12,16.10
2015,07,01,03,13,16.10
2015,07,01,03,14,16.10
2015,07,01,03,15,16.10
2015,07,01,03,16,16.10
2015,07,01,03,17,16.10
2015,07,01,03,18,16.10
2015,07,01,03,19,16.10
2015,07,01,03,20,16.10
2015,07,01,03,21,16.10
2015,07,01,03,22,16.10
2015,07,01,03,23,16.10
2015,07,01,03,24,16.10
2015,07,01,03,25,16.10
2015,07,01,03,26,16.10
2015,07,01,03,27,16.10
2015,07,01,03,28,16.10
2015,07,01,03,29,16.10
2015,07,01,03,30,16.10
2015,07,01,03,31,16.10
2015,07,01,03,32,16.10
2015,07,01,03,33,16.10
2015,07,01,03,34,16.10
2015,07,01,03,35,16.10
2015,07,01,03,36,16.10
2015,07,01,03,37,16.10
2015,07,01,03,38,16.10
2015,07,01,03,39,16.00
2015,07,01,03,40,15.90
2015,07,01,03,41,15.90
2015,07,01,03,42,15.90
2015,07,01,03,43,15.90
2015,07,01,03,44,15.90
2015,07,01,03,45,15.90
2015,07,01,03,46,15.90
2015,07,01,03,47,15.90
2015,07,01,03,48,15.90
2015,07,01,03,49,15.90
2015,07,01,03,50,15.90
2015,07,01,03,51,15.80
2015,07,01,03,52,15.80
2015,07,01,03,53,15.80
2015,07,01,03,54,15.80
2015,07,01,03,55,15.80
2015,07,01,03,56,15.80
2015,07,01,03,57,15.80
2015,07,01,03,58,15.80
2015,07,01,03,59,15.80
2015,07,01,04,00,15.80
2015,07,01,04,01,15.80
2015,07,01,04,02,15.80
2015,07,01,04,03,15.80
2015,07,01,04,04,15.70
2015,07,01,04,05,15.70
2015,07,01,04,06,15.70
2015,07,01,04,07,15.70
2015,07,01,04,08,15.70
2015,07,01,04,09,15.70
2015,07,01,04,10,15.60
2015,07,01,04,11,15.60
2015,07,01,04,12,15.60
2015,07,01,04,13,15.60
2015,07,01,04,14,15.60
2015,07,01,04,15,15.60
2015,07,01,04,16,15.60
2015,07,01,04,17,15.50
2015,07,01,04,18,15.50
2015,07,01,04,19,15.50
2015,07,01,04,20,15.50
2015,07,01,04,21,15.50
2015,07,01,04,22,15.50
2015,07,01,04,23,15.50
2015,07,01,04,24,15.50
2015,07,01,04,25,15.40
2015,07,01,04,26,15.40
2015,07,01,04,27,15.40
2015,07,01,04,28,15.40
2015,07,01,04,29,15.40
2015,07,01,04,30,15.40
2015,07,01,04,31,15.30
2015,07,01,04,32,15.30
2015,07,01,04,33,15.30
2015,07,01,04,34,15.30
2015,07,01,04,35,15.30
2015,07,01,04,36,15.30
2015,07,01,04,37,15.30
2015,07,01,04,38,15.30
2015,07,01,04,39,15.30
2015,07,01,04,40,15.30
2015,07,01,04,41,15.30
2015,07,01,04,42,15.30
2015,07,01,04,43,15.20
2015,07,01,04,44,15.20
2015,07,01,04,45,15.20
2015,07,01,04,46,15.20
2015,07,01,04,47,15.20
2015,07,01,04,48,15.20
2015,07,01,04,49,15.20
2015,07,01,04,50,15.20
2015,07,01,04,51,15.20
2015,07,01,04,52,15.20
2015,07,01,04,53,15.20
2015,07,01,04,54,15.20
2015,07,01,04,55,15.20
2015,07,01,04,56,15.20
2015,07,01,04,57,15.20
2015,07,01,04,58,15.20
2015,07,01,04,59,15.20
2015,07,01,05,00,15.20
2015,07,01,05,01,15.20
2015,07,01,05,02,15.10
2015,07,01,05,03,15.10
2015,07,01,05,04,15.10
2015,07,01,05,05,15.10
2015,07,01,05,06,15.10
2015,07,01,05,07,15.10
2015,07,01,05,08,15.10
2015,07,01,05,09,15.10
2015,07,01,05,10,15.10
2015,07,01,05,11,15.10
2015,07,01,05,12,15.20
2015,07,01,05,13,15.20
2015,07,01,05,14,15.20
2015,07,01,05,15,15.20
2015,07,01,05,16,15.20
2015,07,01,05,17,15.20
2015,07,01,05,18,15.20
2015,07,01,05,19,15.20
2015,07,01,05,20,15.20
2015,07,01,05,21,15.20
2015,07,01,05,22,15.20
2015,07,01,05,23,15.20
2015,07,01,05,24,15.20
2015,07,01,05,25,15.20
2015,07,01,05,26,15.20
2015,07,01,05,27,15.20
2015,07,01,05,28,15.20
2015,07,01,05,29,15.20
2015,07,01,05,30,15.20
2015,07,01,05,31,15.20
2015,07,01,05,32,15.20
2015,07,01,05,33,15.20
2015,07,01,05,34,15.30
2015,07,01,05,35,15.30
2015,07,01,05,36,15.30
2015,07,01,05,37,15.30
2015,07,01,05,38,15.30
2015,07,01,05,39,15.30
2015,07,01,05,40,15.30
2015,07,01,05,41,15.30
2015,07,01,05,42,15.30
2015,07,01,05,43,15.30
2015,07,01,05,44,15.30
2015,07,01,05,45,15.30
2015,07,01,05,46,15.30
2015,07,01,05,47,15.30
2015,07,01,05,48,15.30
2015,07,01,05,49,15.30
2015,07,01,05,50,15.30
2015,07,01,05,51,15.30
2015,07,01,05,52,15.30
2015,07,01,05,53,15.30
2015,07,01,05,54,15.30
2015,07,01,05,55,15.30
2015,07,01,05,56,15.30
2015,07,01,05,57,15.30
2015,07,01,05,58,15.30
2015,07,01,05,59,15.30
2015,07,01,06,00,15.30
2015,07,01,06,01,15.30
2015,07,01,06,02,15.30
2015,07,01,06,03,15.30
2015,07,01,06,04,15.30
2015,07,01,06,05,15.30
2015,07,01,06,06,15.30
2015,07,01,06,07,15.30
2015,07,01,06,08,15.30
2015,07,01,06,09,15.30
2015,07,01,06,10,15.40
2015,07,01,06,11,15.40
2015,07,01,06,12,15.40
2015,07,01,06,13,15.40
2015,07,01,06,14,15.40
2015,07,01,06,15,15.50
2015,07,01,06,16,15.50
2015,07,01,06,17,15.50
2015,07,01,06,18,15.50
2015,07,01,06,19,15.60
2015,07,01,06,20,15.60
2015,07,01,06,21,15.60
2015,07,01,06,22,15.70
2015,07,01,06,23,15.70
2015,07,01,06,24,15.70
2015,07,01,06,25,15.80
2015,07,01,06,26,15.80
2015,07,01,06,27,15.80
2015,07,01,06,28,15.80
2015,07,01,06,29,15.90
2015,07,01,06,30,15.90
2015,07,01,06,31,15.90
2015,07,01,06,32,16.10
2015,07,01,06,33,16.10
2015,07,01,06,34,16.10
2015,07,01,06,35,16.10
2015,07,01,06,36,16.10
2015,07,01,06,37,16.20
2015,07,01,06,38,16.20
2015,07,01,06,39,16.20
2015,07,01,06,40,16.20
2015,07,01,06,41,16.30
2015,07,01,06,42,16.30
2015,07,01,06,43,16.30
2015,07,01,06,44,16.30
2015,07,01,06,45,16.30
2015,07,01,06,46,16.40
2015,07,01,06,47,16.40
2015,07,01,06,48,16.40
2015,07,01,06,49,16.40
2015,07,01,06,50,16.50
2015,07,01,06,51,16.60
2015,07,01,06,52,16.60
2015,07,01,06,53,16.70
2015,07,01,06,54,16.70
2015,07,01,06,55,16.70
2015,07,01,06,56,16.80
2015,07,01,06,57,16.80
2015,07,01,06,58,16.90
2015,07,01,06,59,16.90
2015,07,01,07,00,17.00
2015,07,01,07,01,17.00
2015,07,01,07,02,17.00
2015,07,01,07,03,17.10
2015,07,01,07,04,17.10
2015,07,01,07,05,17.20
2015,07,01,07,06,17.20
2015,07,01,07,07,17.30
2015,07,01,07,08,17.30
2015,07,01,07,09,17.30
2015,07,01,07,10,17.40
2015,07,01,07,11,17.40
2015,07,01,07,12,17.50
2015,07,01,07,13,17.50
2015,07,01,07,14,17.60
2015,07,01,07,15,17.60
2015,07,01,07,16,17.70
2015,07,01,07,17,17.70
2015,07,01,07,18,17.80
2015,07,01,07,19,17.90
2015,07,01,07,20,17.90
2015,07,01,07,21,17.90
2015,07,01,07,22,17.90
2015,07,01,07,23,18.00
2015,07,01,07,24,18.10
2015,07,01,07,25,18.10
2015,07,01,07,26,18.10
2015,07,01,07,27,18.20
2015,07,01,07,28,18.20
2015,07,01,07,29,18.20
2015,07,01,07,30,18.20
2015,07,01,07,31,18.30
2015,07,01,07,32,18.40
2015,07,01,07,33,18.40
2015,07,01,07,34,18.50
2015,07,01,07,35,18.50
2015,07,01,07,36,18.60
2015,07,01,07,37,18.60
2015,07,01,07,38,18.70
2015,07,01,07,39,18.70
2015,07,01,07,40,18.80
2015,07,01,07,41,18.90
2015,07,01,07,42,18.90
2015,07,01,07,43,18.90
2015,07,01,07,44,19.10
2015,07,01,07,45,19.10
2015,07,01,07,46,19.10
2015,07,01,07,47,19.10
2015,07,01,07,48,19.10
2015,07,01,07,49,19.20
2015,07,01,07,50,19.20
2015,07,01,07,51,19.30
2015,07,01,07,52,19.30
2015,07,01,07,53,19.30
2015,07,01,07,54,19.40
2015,07,01,07,55,19.40
2015,07,01,07,56,19.50
2015,07,01,07,57,19.50
2015,07,01,07,58,19.50
2015,07,01,07,59,19.60
2015,07,01,08,00,19.60
2015,07,01,08,01,19.60
2015,07,01,08,02,19.60
2015,07,01,08,03,19.70
2015,07,01,08,04,19.80
2015,07,01,08,05,19.80
2015,07,01,08,06,19.90
2015,07,01,08,07,19.90
2015,07,01,08,08,19.90
2015,07,01,08,09,19.90
2015,07,01,08,10,20.10
2015,07,01,08,11,20.10
2015,07,01,08,12,20.10
2015,07,01,08,13,20.20
2015,07,01,08,14,20.20
2015,07,01,08,15,20.20
2015,07,01,08,16,20.20
2015,07,01,08,17,20.20
2015,07,01,08,18,20.30
2015,07,01,08,19,20.30
2015,07,01,08,20,20.30
2015,07,01,08,21,20.30
2015,07,01,08,22,20.40
2015,07,01,08,23,20.40
2015,07,01,08,24,20.40
2015,07,01,08,25,20.40
2015,07,01,08,26,20.40
2015,07,01,08,27,20.50
2015,07,01,08,28,20.50
2015,07,01,08,29,20.50
2015,07,01,08,30,20.50
2015,07,01,08,31,20.50
2015,07,01,08,32,20.50
2015,07,01,08,33,20.50
2015,07,01,08,34,20.60
2015,07,01,08,35,20.60
2015,07,01,08,36,20.60
2015,07,01,08,37,20.70
2015,07,01,08,38,20.70
2015,07,01,08,39,20.70
2015,07,01,08,40,20.80
2015,07,01,08,41,20.80
2015,07,01,08,42,20.80
2015,07,01,08,43,20.80
2015,07,01,08,44,20.80
2015,07,01,08,45,20.80
2015,07,01,08,46,20.80
2015,07,01,08,47,20.80
2015,07,01,08,48,20.90
2015,07,01,08,49,20.90
2015,07,01,08,50,20.90
2015,07,01,08,51,20.90
2015,07,01,08,52,20.90
2015,07,01,08,53,20.90
2015,07,01,08,54,20.90
2015,07,01,08,55,21.00
2015,07,01,08,56,21.00
2015,07,01,08,57,21.00
2015,07,01,08,58,21.00
2015,07,01,08,59,21.10
2015,07,01,09,00,21.10
2015,07,01,09,01,21.20
2015,07,01,09,02,21.20
2015,07,01,09,03,21.30
2015,07,01,09,04,21.30
2015,07,01,09,05,21.30
2015,07,01,09,06,21.40
2015,07,01,09,07,21.50
2015,07,01,09,08,21.60
2015,07,01,09,09,21.60
2015,07,01,09,10,21.60
2015,07,01,09,11,21.60
2015,07,01,09,12,21.60
2015,07,01,09,13,21.70
2015,07,01,09,14,21.70
2015,07,01,09,15,21.70
2015,07,01,09,16,21.70
2015,07,01,09,17,21.80
2015,07,01,09,18,21.80
2015,07,01,09,19,21.90
2015,07,01,09,20,21.90
2015,07,01,09,21,22.00
2015,07,01,09,22,22.00
2015,07,01,09,23,22.00
2015,07,01,09,24,22.00
2015,07,01,09,25,21.90
2015,07,01,09,26,22.00
2015,07,01,09,27,22.00
2015,07,01,09,28,22.00
2015,07,01,09,29,22.00
2015,07,01,09,30,22.00
2015,07,01,09,31,22.00
2015,07,01,09,32,22.10
2015,07,01,09,33,22.10
2015,07,01,09,34,22.10
2015,07,01,09,35,22.10
2015,07,01,09,36,22.10
2015,07,01,09,37,22.20
2015,07,01,09,38,22.20
2015,07,01,09,39,22.30
2015,07,01,09,40,22.40
2015,07,01,09,41,22.50
2015,07,01,09,42,22.60
2015,07,01,09,43,22.60
2015,07,01,09,44,22.70
2015,07,01,09,45,22.70
2015,07,01,09,46,22.80
2015,07,01,09,47,22.80
2015,07,01,09,48,22.80
2015,07,01,09,49,22.80
2015,07,01,09,50,22.80
2015,07,01,09,51,22.70
2015,07,01,09,52,22.70
2015,07,01,09,53,22.70
2015,07,01,09,54,22.70
2015,07,01,09,55,22.70
2015,07,01,09,56,22.70
2015,07,01,09,57,22.80
2015,07,01,09,58,22.80
2015,07,01,09,59,22.90
2015,07,01,10,00,22.90
2015,07,01,10,01,22.90
2015,07,01,10,02,22.90
2015,07,01,10,03,22.90
2015,07,01,10,04,22.90
2015,07,01,10,05,22.90
2015,07,01,10,06,23.00
2015,07,01,10,07,23.10
2015,07,01,10,08,23.20
2015,07,01,10,09,23.30
2015,07,01,10,10,23.30
2015,07,01,10,11,23.40
2015,07,01,10,12,23.50
2015,07,01,10,13,23.60
2015,07,01,10,14,23.70
2015,07,01,10,15,23.80
2015,07,01,10,16,23.90
2015,07,01,10,17,23.90
2015,07,01,10,18,24.00
2015,07,01,10,19,24.10
2015,07,01,10,20,24.00
2015,07,01,10,21,23.90
2015,07,01,10,22,23.90
2015,07,01,10,23,24.00
2015,07,01,10,24,24.10
2015,07,01,10,25,24.10
2015,07,01,10,26,24.20
2015,07,01,10,27,24.20
2015,07,01,10,28,24.20
2015,07,01,10,29,24.10
2015,07,01,10,30,24.20
2015,07,01,10,31,24.20
2015,07,01,10,32,24.20
2015,07,01,10,33,24.20
2015,07,01,10,34,24.30
2015,07,01,10,35,24.30
2015,07,01,10,36,24.40
2015,07,01,10,37,24.40
2015,07,01,10,38,24.50
2015,07,01,10,39,24.60
2015,07,01,10,40,24.70
2015,07,01,10,41,24.70
2015,07,01,10,42,24.80
2015,07,01,10,43,24.80
2015,07,01,10,44,24.80
2015,07,01,10,45,24.80
2015,07,01,10,46,24.80
2015,07,01,10,47,24.90
2015,07,01,10,48,24.90
2015,07,01,10,49,24.90
2015,07,01,10,50,24.90
2015,07,01,10,51,25.00
2015,07,01,10,52,25.00
2015,07,01,10,53,24.90
2015,07,01,10,54,24.90
2015,07,01,10,55,24.90
2015,07,01,10,56,24.80
2015,07,01,10,57,24.80
2015,07,01,10,58,24.70
2015,07,01,10,59,24.70
2015,07,01,11,00,24.70
2015,07,01,11,01,24.70
2015,07,01,11,02,24.80
2015,07,01,11,03,24.80
2015,07,01,11,04,24.90
2015,07,01,11,05,24.90
2015,07,01,11,06,25.00
2015,07,01,11,07,25.10
2015,07,01,11,08,25.10
2015,07,01,11,09,25.20
2015,07,01,11,10,25.10
2015,07,01,11,11,25.10
2015,07,01,11,12,25.20
2015,07,01,11,13,25.30
2015,07,01,11,14,25.30
2015,07,01,11,15,25.30
2015,07,01,11,16,25.30
2015,07,01,11,17,25.20
2015,07,01,11,18,25.20
2015,07,01,11,19,25.20
2015,07,01,11,20,25.10
2015,07,01,11,21,25.10
2015,07,01,11,22,25.20
2015,07,01,11,23,25.30
2015,07,01,11,24,25.30
2015,07,01,11,25,25.40
2015,07,01,11,26,25.50
2015,07,01,11,27,25.60
2015,07,01,11,28,25.80
2015,07,01,11,29,25.90
2015,07,01,11,30,26.00
2015,07,01,11,31,26.00
2015,07,01,11,32,26.00
2015,07,01,11,33,26.00
2015,07,01,11,34,26.00
2015,07,01,11,35,26.00
2015,07,01,11,36,26.00
2015,07,01,11,37,26.00
2015,07,01,11,38,26.20
2015,07,01,11,39,26.20
2015,07,01,11,40,26.30
2015,07,01,11,41,26.30
2015,07,01,11,42,26.40
2015,07,01,11,43,26.40
2015,07,01,11,44,26.60
2015,07,01,11,45,26.60
2015,07,01,11,46,26.60
2015,07,01,11,47,26.70
2015,07,01,11,48,26.70
2015,07,01,11,49,26.80
2015,07,01,11,50,26.80
2015,07,01,11,51,27.00
2015,07,01,11,52,27.10
2015,07,01,11,53,27.10
2015,07,01,11,54,27.20
2015,07,01,11,55,27.30
2015,07,01,11,56,27.30
2015,07,01,11,57,27.20
2015,07,01,11,58,27.30
2015,07,01,11,59,27.30
2015,07,01,12,00,27.40
2015,07,01,12,01,27.40
2015,07,01,12,02,27.50
2015,07,01,12,03,27.50
2015,07,01,12,04,27.40
2015,07,01,12,05,27.40
2015,07,01,12,06,27.40
2015,07,01,12,07,27.40
2015,07,01,12,08,27.40
2015,07,01,12,09,27.40
2015,07,01,12,10,27.40
2015,07,01,12,11,27.60
2015,07,01,12,12,27.60
2015,07,01,12,13,27.60
2015,07,01,12,14,27.80
2015,07,01,12,15,27.80
2015,07,01,12,16,27.90
2015,07,01,12,17,28.00
2015,07,01,12,18,28.00
2015,07,01,12,19,28.10
2015,07,01,12,20,28.00
2015,07,01,12,21,28.00
2015,07,01,12,22,28.10
2015,07,01,12,23,28.00
2015,07,01,12,24,28.00
2015,07,01,12,25,28.00
2015,07,01,12,26,28.00
2015,07,01,12,27,27.90
2015,07,01,12,28,27.90
2015,07,01,12,29,27.90
2015,07,01,12,30,27.80
2015,07,01,12,31,27.90
2015,07,01,12,32,28.10
2015,07,01,12,33,28.10
2015,07,01,12,34,28.10
2015,07,01,12,35,28.20
2015,07,01,12,36,28.20
2015,07,01,12,37,28.20
2015,07,01,12,38,28.30
2015,07,01,12,39,28.50
2015,07,01,12,40,28.40
2015,07,01,12,41,28.30
2015,07,01,12,42,28.20
2015,07,01,12,43,28.10
2015,07,01,12,44,27.90
2015,07,01,12,45,27.80
2015,07,01,12,46,27.70
2015,07,01,12,47,27.70
2015,07,01,12,48,27.70
2015,07,01,12,49,27.80
2015,07,01,12,50,27.70
2015,07,01,12,51,27.70
2015,07,01,12,52,27.80
2015,07,01,12,53,27.70
2015,07,01,12,54,27.80
2015,07,01,12,55,27.90
2015,07,01,12,56,27.90
2015,07,01,12,57,28.00
2015,07,01,12,58,28.00
2015,07,01,12,59,28.00
2015,07,01,13,00,28.00
2015,07,01,13,01,28.10
2015,07,01,13,02,28.20
2015,07,01,13,03,28.20
2015,07,01,13,04,28.20
2015,07,01,13,05,28.10
2015,07,01,13,06,28.10
2015,07,01,13,07,28.10
2015,07,01,13,08,28.10
2015,07,01,13,09,28.20
2015,07,01,13,10,28.20
2015,07,01,13,11,28.20
2015,07,01,13,12,28.10
2015,07,01,13,13,28.10
2015,07,01,13,14,28.20
2015,07,01,13,15,28.20
2015,07,01,13,16,28.30
2015,07,01,13,17,28.30
2015,07,01,13,18,28.30
2015,07,01,13,19,28.40
2015,07,01,13,20,28.40
2015,07,01,13,21,28.60
2015,07,01,13,22,28.60
2015,07,01,13,23,28.50
2015,07,01,13,24,28.30
2015,07,01,13,25,28.10
2015,07,01,13,26,27.90
2015,07,01,13,27,27.80
2015,07,01,13,28,27.70
2015,07,01,13,29,27.70
2015,07,01,13,30,27.70
2015,07,01,13,31,27.70
2015,07,01,13,32,27.70
2015,07,01,13,33,27.70
2015,07,01,13,34,27.70
2015,07,01,13,35,27.60
2015,07,01,13,36,27.60
2015,07,01,13,37,27.50
2015,07,01,13,38,27.40
2015,07,01,13,39,27.50
2015,07,01,13,40,27.40
2015,07,01,13,41,27.50
2015,07,01,13,42,27.60
2015,07,01,13,43,27.80
2015,07,01,13,44,27.90
2015,07,01,13,45,28.00
2015,07,01,13,46,28.10
2015,07,01,13,47,28.20
2015,07,01,13,48,28.30
2015,07,01,13,49,28.40
2015,07,01,13,50,28.60
2015,07,01,13,51,28.70
2015,07,01,13,52,28.90
2015,07,01,13,53,29.10
2015,07,01,13,54,29.30
2015,07,01,13,55,29.40
2015,07,01,13,56,29.40
2015,07,01,13,57,29.30
2015,07,01,13,58,29.30
2015,07,01,13,59,29.30
2015,07,01,14,00,29.40
2015,07,01,14,01,29.40
2015,07,01,14,02,29.40
2015,07,01,14,03,29.30
2015,07,01,14,04,29.30
2015,07,01,14,05,29.30
2015,07,01,14,06,29.30
2015,07,01,14,07,29.30
2015,07,01,14,08,29.30
2015,07,01,14,09,29.30
2015,07,01,14,10,29.30
2015,07,01,14,11,29.40
2015,07,01,14,12,29.50
2015,07,01,14,13,29.50
2015,07,01,14,14,29.50
2015,07,01,14,15,29.60
2015,07,01,14,16,29.60
2015,07,01,14,17,29.80
2015,07,01,14,18,29.80
2015,07,01,14,19,29.90
2015,07,01,14,20,29.90
2015,07,01,14,21,29.90
2015,07,01,14,22,29.90
2015,07,01,14,23,29.70
2015,07,01,14,24,29.70
2015,07,01,14,25,29.70
2015,07,01,14,26,29.70
2015,07,01,14,27,29.70
2015,07,01,14,28,29.80
2015,07,01,14,29,29.80
2015,07,01,14,30,29.80
2015,07,01,14,31,29.70
2015,07,01,14,32,29.40
2015,07,01,14,33,29.40
2015,07,01,14,34,29.40
2015,07,01,14,35,29.50
2015,07,01,14,36,29.50
2015,07,01,14,37,29.50
2015,07,01,14,38,29.40
2015,07,01,14,39,29.40
2015,07,01,14,40,29.40
2015,07,01,14,41,29.50
2015,07,01,14,42,29.40
2015,07,01,14,43,29.40
2015,07,01,14,44,29.30
2015,07,01,14,45,29.30
2015,07,01,14,46,29.30
2015,07,01,14,47,29.30
2015,07,01,14,48,29.20
2015,07,01,14,49,29.20
2015,07,01,14,50,29.20
2015,07,01,14,51,29.20
2015,07,01,14,52,29.30
2015,07,01,14,53,29.40
2015,07,01,14,54,29.40
2015,07,01,14,55,29.30
2015,07,01,14,56,29.30
2015,07,01,14,57,29.20
2015,07,01,14,58,29.20
2015,07,01,14,59,29.20
2015,07,01,15,00,29.20
2015,07,01,15,01,29.10
2015,07,01,15,02,29.20
2015,07,01,15,03,29.20
2015,07,01,15,04,29.20
2015,07,01,15,05,29.20
2015,07,01,15,06,29.20
2015,07,01,15,07,29.30
2015,07,01,15,08,29.30
2015,07,01,15,09,29.40
2015,07,01,15,10,29.30
2015,07,01,15,11,29.20
2015,07,01,15,12,29.10
2015,07,01,15,13,29.10
2015,07,01,15,14,29.00
2015,07,01,15,15,28.90
2015,07,01,15,16,29.00
2015,07,01,15,17,29.10
2015,07,01,15,18,29.20
2015,07,01,15,19,29.20
2015,07,01,15,20,29.10
2015,07,01,15,21,29.10
2015,07,01,15,22,29.00
2015,07,01,15,23,28.90
2015,07,01,15,24,28.90
2015,07,01,15,25,28.80
2015,07,01,15,26,28.80
2015,07,01,15,27,28.80
2015,07,01,15,28,28.70
2015,07,01,15,29,28.60
2015,07,01,15,30,28.60
2015,07,01,15,31,28.60
2015,07,01,15,32,28.60
2015,07,01,15,33,28.60
2015,07,01,15,34,28.60
2015,07,01,15,35,28.60
2015,07,01,15,36,28.60
2015,07,01,15,37,28.60
2015,07,01,15,38,28.60
2015,07,01,15,39,28.60
2015,07,01,15,40,28.60
2015,07,01,15,41,28.70
2015,07,01,15,42,28.70
2015,07,01,15,43,28.70
2015,07,01,15,44,28.70
2015,07,01,15,45,28.90
2015,07,01,15,46,29.00
2015,07,01,15,47,29.10
2015,07,01,15,48,29.40
2015,07,01,15,49,29.70
2015,07,01,15,50,29.90
2015,07,01,15,51,29.90
2015,07,01,15,52,30.00
2015,07,01,15,53,30.10
2015,07,01,15,54,30.30
2015,07,01,15,55,30.20
2015,07,01,15,56,30.10
2015,07,01,15,57,30.10
2015,07,01,15,58,30.10
2015,07,01,15,59,30.10
2015,07,01,16,00,30.00
2015,07,01,16,01,29.90
2015,07,01,16,02,29.80
2015,07,01,16,03,29.70
2015,07,01,16,04,29.60
2015,07,01,16,05,29.60
2015,07,01,16,06,29.50
2015,07,01,16,07,29.50
2015,07,01,16,08,29.50
2015,07,01,16,09,29.50
2015,07,01,16,10,29.50
2015,07,01,16,11,29.40
2015,07,01,16,12,29.40
2015,07,01,16,13,29.40
2015,07,01,16,14,29.40
2015,07,01,16,15,29.40
2015,07,01,16,16,29.30
2015,07,01,16,17,29.30
2015,07,01,16,18,29.30
2015,07,01,16,19,29.20
2015,07,01,16,20,29.30
2015,07,01,16,21,29.20
2015,07,01,16,22,29.20
2015,07,01,16,23,29.10
2015,07,01,16,24,29.10
2015,07,01,16,25,29.10
2015,07,01,16,26,29.10
2015,07,01,16,27,29.10
2015,07,01,16,28,29.00
2015,07,01,16,29,28.90
2015,07,01,16,30,28.90
2015,07,01,16,31,28.90
2015,07,01,16,32,28.90
2015,07,01,16,33,28.90
2015,07,01,16,34,28.90
2015,07,01,16,35,28.90
2015,07,01,16,36,28.90
2015,07,01,16,37,28.90
2015,07,01,16,38,28.80
2015,07,01,16,39,28.80
2015,07,01,16,40,28.90
2015,07,01,16,41,29.00
2015,07,01,16,42,29.10
2015,07,01,16,43,29.10
2015,07,01,16,44,29.20
2015,07,01,16,45,29.30
2015,07,01,16,46,29.30
2015,07,01,16,47,29.40
2015,07,01,16,48,29.30
2015,07,01,16,49,29.40
2015,07,01,16,50,29.40
2015,07,01,16,51,29.30
2015,07,01,16,52,29.30
2015,07,01,16,53,29.20
2015,07,01,16,54,29.20
2015,07,01,16,55,29.10
2015,07,01,16,56,29.10
2015,07,01,16,57,29.10
2015,07,01,16,58,29.10
2015,07,01,16,59,29.20
2015,07,01,17,00,29.30
2015,07,01,17,01,29.40
2015,07,01,17,02,29.50
2015,07,01,17,03,29.60
2015,07,01,17,04,29.70
2015,07,01,17,05,29.80
2015,07,01,17,06,29.90
2015,07,01,17,07,30.00
2015,07,01,17,08,30.10
2015,07,01,17,09,30.20
2015,07,01,17,10,30.30
2015,07,01,17,11,30.40
2015,07,01,17,12,30.50
2015,07,01,17,13,30.70
2015,07,01,17,14,30.70
2015,07,01,17,15,30.70
2015,07,01,17,16,30.70
2015,07,01,17,17,30.60
2015,07,01,17,18,30.60
2015,07,01,17,19,30.60
2015,07,01,17,20,30.60
2015,07,01,17,21,30.60
2015,07,01,17,22,30.60